• In Moldova, Republic
  • List of Countries
  • For 7 days
  • Water Temperature
  • Satellite Maps
  • Weather Map
  • Weather Widgets
  • user-avatar
    Login

    Hourly Weather Batina

    Today, 17 January, Tuesday

    Time Temperature Precipitation Wind Pressure Humidity
    00:00 -1°C° 0.5 mm 4 mps 664 mmHg 91%
    01:00 -1°C° 0.1 mm 3 mps 663 mmHg 91%
    02:00 -1°C° 0.1 mm 3 mps 663 mmHg 91%
    03:00 -2°C° 0.1 mm 2 mps 662 mmHg 91%
    04:00 -2°C° 0.2 mm 2 mps 662 mmHg 91%
    05:00 -2°C° 0.2 mm 2 mps 662 mmHg 91%
    06:00 -2°C° 0.2 mm 2 mps 662 mmHg 91%
    07:00 -1°C° 0.3 mm 2 mps 663 mmHg 87%
    08:00 -1°C° 0.3 mm 3 mps 663 mmHg 83%
    09:00 0°C° 0.3 mm 3 mps 663 mmHg 79%
    10:00 -1°C° 0.2 mm 4 mps 663 mmHg 75%
    11:00 0°C° 0.2 mm 5 mps 663 mmHg 71%
    12:00 0°C° 0.2 mm 5 mps 663 mmHg 68%
    13:00 0°C° 0.1 mm 5 mps 663 mmHg 67%
    14:00 0°C° 0.1 mm 5 mps 663 mmHg 66%
    15:00 -1°C° 0.1 mm 5 mps 663 mmHg 65%
    16:00 -2°C° 0 mm 4 mps 663 mmHg 72%
    17:00 -2°C° 0 mm 3 mps 663 mmHg 78%
    18:00 -4°C° 0 mm 2 mps 663 mmHg 85%
    19:00 -4°C° 0 mm 2 mps 664 mmHg 86%
    20:00 -4°C° 0 mm 2 mps 664 mmHg 87%
    21:00 -5°C° 0 mm 2 mps 664 mmHg 88%
    22:00 -6°C° 0 mm 3 mps 664 mmHg 88%
    23:00 -6°C° 0 mm 3 mps 664 mmHg 87%

    Tomorrow, 18 January, Wednesday

    Time Temperature Precipitation Wind Pressure Humidity
    00:00 -6°C° 0 mm 3 mps 664 mmHg 87%
    01:00 -6°C° 0 mm 3 mps 664 mmHg 87%
    02:00 -5°C° 0 mm 2 mps 664 mmHg 88%
    03:00 -5°C° 0 mm 2 mps 664 mmHg 88%
    04:00 -4°C° 0 mm 2 mps 664 mmHg 88%
    05:00 -4°C° 0 mm 2 mps 664 mmHg 88%
    06:00 -4°C° 0 mm 2 mps 665 mmHg 88%
    07:00 -3°C° 0 mm 2 mps 665 mmHg 84%
    08:00 -2°C° 0 mm 3 mps 666 mmHg 80%
    09:00 -1°C° 0 mm 3 mps 667 mmHg 76%
    10:00 0°C° 0 mm 3 mps 667 mmHg 71%
    11:00 +2°C° 0 mm 3 mps 667 mmHg 66%
    12:00 +3°C° 0 mm 3 mps 667 mmHg 61%
    13:00 +3°C° 0 mm 3 mps 667 mmHg 61%
    14:00 +3°C° 0 mm 3 mps 667 mmHg 61%
    15:00 +3°C° 0 mm 3 mps 667 mmHg 60%
    16:00 +2°C° 0 mm 2 mps 667 mmHg 67%
    17:00 -1°C° 0 mm 2 mps 667 mmHg 74%
    18:00 -1°C° 0 mm 1 mps 667 mmHg 82%
    19:00 -1°C° 0 mm 1 mps 667 mmHg 82%
    20:00 -1°C° 0 mm 1 mps 667 mmHg 82%
    21:00 -2°C° 0 mm 1 mps 667 mmHg 82%
    22:00 -2°C° 0 mm 1 mps 667 mmHg 82%
    23:00 -2°C° 0 mm 1 mps 667 mmHg 81%

    Day after tomorrow, 19 January, Thursday

    Time Temperature Precipitation Wind Pressure Humidity
    00:00 -2°C° 0 mm 1 mps 667 mmHg 81%
    01:00 -2°C° 0 mm 1 mps 667 mmHg 80%
    02:00 -2°C° 0 mm 1 mps 667 mmHg 80%
    03:00 -3°C° 0 mm 0 mps 667 mmHg 79%
    04:00 -2°C° 0 mm 1 mps 667 mmHg 78%
    05:00 -2°C° 0 mm 1 mps 667 mmHg 77%
    06:00 -2°C° 0 mm 1 mps 667 mmHg 76%
    07:00 0°C° 0 mm 1 mps 668 mmHg 68%
    08:00 +2°C° 0 mm 1 mps 669 mmHg 59%
    09:00 +4°C° 0 mm 1 mps 670 mmHg 51%
    10:00 +4°C° 0 mm 2 mps 670 mmHg 48%
    11:00 +5°C° 0 mm 2 mps 670 mmHg 44%
    12:00 +6°C° 0 mm 2 mps 670 mmHg 40%
    13:00 +6°C° 0 mm 2 mps 670 mmHg 42%
    14:00 +6°C° 0 mm 2 mps 670 mmHg 43%
    15:00 +6°C° 0 mm 2 mps 669 mmHg 44%
    16:00 +4°C° 0 mm 2 mps 669 mmHg 52%
    17:00 +2°C° 0 mm 2 mps 668 mmHg 59%
    18:00 +1°C° 0 mm 1 mps 668 mmHg 66%
    19:00 0°C° 0 mm 1 mps 668 mmHg 66%
    20:00 0°C° 0 mm 1 mps 668 mmHg 66%
    21:00 0°C° 0 mm 1 mps 668 mmHg 66%
    22:00 0°C° 0 mm 1 mps 668 mmHg 66%
    23:00 0°C° 0 mm 1 mps 668 mmHg 66%

    20 January, Friday

    Time Temperature Precipitation Wind Pressure Humidity
    00:00 0°C° 0 mm 1 mps 667 mmHg 65%
    01:00 0°C° 0 mm 1 mps 667 mmHg 65%
    02:00 0°C° 0 mm 1 mps 667 mmHg 66%
    03:00 -2°C° 0 mm 2 mps 666 mmHg 66%
    04:00 -2°C° 0 mm 2 mps 666 mmHg 66%
    05:00 -2°C° 0 mm 2 mps 666 mmHg 67%
    06:00 -2°C° 0 mm 2 mps 666 mmHg 68%
    07:00 +1°C° 0 mm 2 mps 666 mmHg 65%
    08:00 +1°C° 0 mm 3 mps 667 mmHg 63%
    09:00 +2°C° 0 mm 3 mps 667 mmHg 61%
    10:00 +3°C° 0.1 mm 4 mps 667 mmHg 61%
    11:00 +4°C° 0.1 mm 4 mps 666 mmHg 62%
    12:00 +5°C° 0.1 mm 5 mps 666 mmHg 63%
    13:00 +3°C° 1.1 mm 5 mps 665 mmHg 69%
    14:00 +4°C° 1.1 mm 4 mps 665 mmHg 76%
    15:00 +3°C° 1.1 mm 4 mps 664 mmHg 83%
    16:00 +2°C° 1 mm 3 mps 664 mmHg 84%
    17:00 +3°C° 1 mm 2 mps 664 mmHg 85%
    18:00 +3°C° 1 mm 1 mps 663 mmHg 86%
    19:00 +2°C° 0.1 mm 1 mps 663 mmHg 86%
    20:00 +2°C° 0.1 mm 1 mps 663 mmHg 85%
    21:00 +1°C° 0.1 mm 1 mps 663 mmHg 85%
    22:00 +1°C° 0 mm 1 mps 663 mmHg 85%
    23:00 +1°C° 0 mm 1 mps 663 mmHg 86%

    21 January, Saturday

    Time Temperature Precipitation Wind Pressure Humidity
    00:00 0°C° 0 mm 1 mps 662 mmHg 86%
    01:00 0°C° 0.1 mm 1 mps 662 mmHg 86%
    02:00 0°C° 0.1 mm 1 mps 662 mmHg 86%
    03:00 +1°C° 0.1 mm 1 mps 662 mmHg 86%
    04:00 -2°C° 0.4 mm 2 mps 662 mmHg 87%
    05:00 -2°C° 0.4 mm 2 mps 661 mmHg 88%
    06:00 -2°C° 0.4 mm 2 mps 661 mmHg 89%
    07:00 -1°C° 0.8 mm 2 mps 662 mmHg 88%
    08:00 -1°C° 0.8 mm 2 mps 662 mmHg 87%
    09:00 +1°C° 0.8 mm 2 mps 662 mmHg 87%
    10:00 +2°C° 0.1 mm 2 mps 662 mmHg 86%
    11:00 +2°C° 0.1 mm 2 mps 662 mmHg 85%
    12:00 +2°C° 0.1 mm 3 mps 662 mmHg 85%
    13:00 +3°C° 0 mm 2 mps 662 mmHg 84%
    14:00 +3°C° 0 mm 2 mps 662 mmHg 84%
    15:00 +4°C° 0 mm 2 mps 662 mmHg 84%
    16:00 +3°C° 0.1 mm 2 mps 662 mmHg 87%
    17:00 +2°C° 0.1 mm 2 mps 662 mmHg 89%
    18:00 +2°C° 0.1 mm 1 mps 663 mmHg 92%
    19:00 -1°C° 0 mm 2 mps 663 mmHg 92%
    20:00 -1°C° 0 mm 2 mps 664 mmHg 93%
    21:00 -1°C° 0 mm 2 mps 664 mmHg 93%
    22:00 -1°C° 0.2 mm 2 mps 664 mmHg 92%
    23:00 -1°C° 0.2 mm 3 mps 665 mmHg 92%

    22 January, Sunday

    Time Temperature Precipitation Wind Pressure Humidity
    00:00 0°C° 0.2 mm 3 mps 665 mmHg 92%
    01:00 -1°C° 0 mm 4 mps 666 mmHg 93%
    02:00 -1°C° 0 mm 4 mps 666 mmHg 93%
    03:00 -1°C° 0 mm 4 mps 666 mmHg 94%
    04:00 -1°C° 0 mm 4 mps 667 mmHg 93%
    05:00 -1°C° 0 mm 4 mps 667 mmHg 93%
    06:00 -1°C° 0 mm 4 mps 667 mmHg 92%
    07:00 -1°C° 0.1 mm 4 mps 668 mmHg 91%
    08:00 0°C° 0.1 mm 5 mps 669 mmHg 89%
    09:00 +1°C° 0.1 mm 5 mps 670 mmHg 87%
    10:00 +1°C° 0 mm 5 mps 670 mmHg 83%
    11:00 +2°C° 0 mm 5 mps 670 mmHg 79%
    12:00 +2°C° 0 mm 5 mps 671 mmHg 75%
    13:00 +3°C° 0 mm 4 mps 671 mmHg 74%
    14:00 +3°C° 0 mm 3 mps 671 mmHg 73%
    15:00 +3°C° 0 mm 3 mps 670 mmHg 72%
    16:00 +3°C° 0 mm 2 mps 670 mmHg 77%
    17:00 +1°C° 0 mm 2 mps 670 mmHg 82%
    18:00 0°C° 0 mm 1 mps 670 mmHg 87%
    19:00 0°C° 0 mm 1 mps 670 mmHg 86%
    20:00 -2°C° 0 mm 2 mps 670 mmHg 86%
    21:00 -2°C° 0 mm 2 mps 671 mmHg 85%
    22:00 -2°C° 0 mm 2 mps 671 mmHg 82%
    23:00 -2°C° 0 mm 2 mps 671 mmHg 79%
    Show more